Year,Month,Day,Hour,Minute,Value (Times are PST for temperature in C)
2020,03,21,08,56,16.90
2020,03,21,08,57,16.90
2020,03,21,08,58,16.90
2020,03,21,08,59,16.90
2020,03,21,09,00,16.90
2020,03,21,09,01,16.90
2020,03,21,09,02,16.90
2020,03,21,09,03,16.90
2020,03,21,09,04,16.90
2020,03,21,09,05,16.90
2020,03,21,09,06,16.90
2020,03,21,09,56,17.90
2020,03,21,09,57,17.80
2020,03,21,09,58,17.80
2020,03,21,09,59,17.80
2020,03,21,10,00,17.80
2020,03,21,10,01,17.80
2020,03,21,10,02,17.80
2020,03,21,10,03,17.80
2020,03,21,10,04,17.80
2020,03,21,10,05,17.80
2020,03,21,10,06,17.80
2020,03,21,11,13,25.60
2020,03,21,11,14,25.70
2020,03,21,11,15,25.70
2020,03,21,11,16,25.70
2020,03,21,11,17,25.70
2020,03,21,11,18,25.70
2020,03,21,11,19,25.70
2020,03,21,11,20,25.70
2020,03,21,11,21,25.70
2020,03,21,11,22,25.70
2020,03,21,11,23,25.70
2020,03,21,11,24,25.70
2020,03,21,11,25,26.60
2020,03,21,11,26,27.20
2020,03,21,11,27,27.40
2020,03,21,11,28,27.60
2020,03,21,11,29,27.70
2020,03,21,11,30,27.80
2020,03,21,11,31,27.90
2020,03,21,11,32,27.90
2020,03,21,11,33,27.90
2020,03,21,11,34,28.00
2020,03,21,11,35,28.10
2020,03,21,11,36,28.20
2020,03,21,11,37,28.30
2020,03,21,11,38,28.30
2020,03,21,11,39,28.30
2020,03,21,11,40,28.40
2020,03,21,11,41,28.50
2020,03,21,11,42,28.60
2020,03,21,11,43,28.70
2020,03,21,11,44,28.80
2020,03,21,11,45,28.90
2020,03,21,11,46,29.10
2020,03,21,11,47,29.20
2020,03,21,11,48,29.30
2020,03,21,11,49,29.40
2020,03,21,11,50,29.50
2020,03,21,11,51,29.70
2020,03,21,11,52,29.80
2020,03,21,11,53,29.90
2020,03,21,11,54,30.10
2020,03,21,11,55,30.30
2020,03,21,11,56,30.40
2020,03,21,11,57,30.60
2020,03,21,11,58,30.70
2020,03,21,11,59,30.80
2020,03,21,12,00,30.80
2020,03,21,12,01,30.90
2020,03,21,12,02,31.00
2020,03,21,12,03,31.10
2020,03,21,12,04,31.20
2020,03,21,12,05,31.20
2020,03,21,12,06,31.30
2020,03,21,12,07,31.30
2020,03,21,12,08,31.30
2020,03,21,12,09,31.40
2020,03,21,12,10,31.50
2020,03,21,12,11,31.60
2020,03,21,12,12,31.70
2020,03,21,12,13,31.70
2020,03,21,12,14,31.80
2020,03,21,12,15,32.00
2020,03,21,12,16,32.10
2020,03,21,12,17,32.30
2020,03,21,12,18,32.50
2020,03,21,12,19,32.60
2020,03,21,12,20,32.80
2020,03,21,12,21,33.00
2020,03,21,12,22,33.10
2020,03,21,12,23,33.20
2020,03,21,12,24,33.40
2020,03,21,12,25,33.50
2020,03,21,12,26,33.60
2020,03,21,12,27,33.70
2020,03,21,12,28,33.80
2020,03,21,12,29,33.90
2020,03,21,12,30,33.90
2020,03,21,12,31,34.10
2020,03,21,12,32,34.20
2020,03,21,12,33,34.30
2020,03,21,12,34,34.50
2020,03,21,12,35,34.60
2020,03,21,12,36,34.70
2020,03,21,12,37,34.80
2020,03,21,12,38,34.90
2020,03,21,12,39,35.00
2020,03,21,12,40,35.10
2020,03,21,12,41,35.20
2020,03,21,12,42,35.20
2020,03,21,12,43,35.30
2020,03,21,12,44,35.40
2020,03,21,12,45,35.50
2020,03,21,12,46,35.60
2020,03,21,12,47,35.60
2020,03,21,12,48,35.70
2020,03,21,12,49,35.80
2020,03,21,12,50,35.80
2020,03,21,12,51,35.90
2020,03,21,12,52,35.80
2020,03,21,12,53,35.80
2020,03,21,12,54,35.90
2020,03,21,12,55,35.90
2020,03,21,12,56,36.00
2020,03,21,12,57,36.10
2020,03,21,12,58,36.10
2020,03,21,12,59,36.20
2020,03,21,13,00,36.30
2020,03,21,13,01,36.30
2020,03,21,13,02,36.40
2020,03,21,13,03,36.40
2020,03,21,13,04,36.40
2020,03,21,13,05,36.50
2020,03,21,13,06,36.50
2020,03,21,13,07,36.50
2020,03,21,13,08,36.50
2020,03,21,13,09,36.60
2020,03,21,13,10,36.70
2020,03,21,13,11,36.80
2020,03,21,13,12,37.00
2020,03,21,13,13,37.10
2020,03,21,13,14,37.10
2020,03,21,13,15,37.20
2020,03,21,13,16,37.30
2020,03,21,13,17,37.40
2020,03,21,13,18,37.60
2020,03,21,13,19,37.70
2020,03,21,13,20,37.70
2020,03,21,13,21,37.70
2020,03,21,13,22,37.70
2020,03,21,13,23,37.60
2020,03,21,13,24,37.60
2020,03,21,13,25,37.80
2020,03,21,13,26,37.90
2020,03,21,13,27,37.90
2020,03,21,13,28,38.00
2020,03,21,13,29,38.00
2020,03,21,13,30,38.10
2020,03,21,13,31,38.10
2020,03,21,13,32,38.20
2020,03,21,13,33,38.30
2020,03,21,13,34,38.50
2020,03,21,13,35,38.50
2020,03,21,13,36,38.60
2020,03,21,13,37,38.60
2020,03,21,13,38,38.50
2020,03,21,13,39,38.50
2020,03,21,13,40,38.30
2020,03,21,13,41,38.30
2020,03,21,13,42,38.20
2020,03,21,13,43,38.20
2020,03,21,13,44,38.10
2020,03,21,13,45,38.00
2020,03,21,13,46,38.00
2020,03,21,13,47,37.90
2020,03,21,13,48,37.90
2020,03,21,13,49,37.90
2020,03,21,13,50,38.00
2020,03,21,13,51,38.10
2020,03,21,13,52,38.10
2020,03,21,13,53,38.10
2020,03,21,13,54,38.10
2020,03,21,13,55,38.20
2020,03,21,13,56,38.20
2020,03,21,13,57,38.30
2020,03,21,13,58,38.40
2020,03,21,13,59,38.50
2020,03,21,14,00,38.50
2020,03,21,14,01,38.50
2020,03,21,14,02,38.50
2020,03,21,14,03,38.50
2020,03,21,14,04,38.50
2020,03,21,14,05,38.50
2020,03,21,14,06,38.50
2020,03,21,14,07,38.60
2020,03,21,14,08,38.60
2020,03,21,14,09,38.60
2020,03,21,14,10,38.60
2020,03,21,14,11,38.60
2020,03,21,14,12,38.60
2020,03,21,14,13,38.60
2020,03,21,14,14,38.60
2020,03,21,14,15,38.70
2020,03,21,14,16,38.80
2020,03,21,14,17,38.90
2020,03,21,14,18,39.00
2020,03,21,14,19,39.00
2020,03,21,14,20,39.10
2020,03,21,14,21,39.10
2020,03,21,14,22,39.10
2020,03,21,14,23,39.10
2020,03,21,14,24,39.10
2020,03,21,14,25,39.00
2020,03,21,14,26,38.80
2020,03,21,14,27,38.60
2020,03,21,14,28,38.40
2020,03,21,14,29,38.10
2020,03,21,14,30,37.80
2020,03,21,14,31,37.40
2020,03,21,14,32,37.20
2020,03,21,14,33,37.00
2020,03,21,14,34,36.80
2020,03,21,14,35,36.60
2020,03,21,14,36,36.40
2020,03,21,14,37,36.20
2020,03,21,14,38,36.00
2020,03,21,14,39,35.90
2020,03,21,14,40,35.90
2020,03,21,14,41,35.90
2020,03,21,14,42,35.90
2020,03,21,14,43,35.90
2020,03,21,14,44,36.00
2020,03,21,14,45,36.00
2020,03,21,14,46,36.10
2020,03,21,14,47,36.10
2020,03,21,14,48,36.20
2020,03,21,14,49,36.20
2020,03,21,14,50,36.30
2020,03,21,14,51,36.40
2020,03,21,14,52,36.40
2020,03,21,14,53,36.40
2020,03,21,14,54,36.40
2020,03,21,14,55,36.40
2020,03,21,14,56,36.40
2020,03,21,14,57,36.40
2020,03,21,14,58,36.40
2020,03,21,14,59,36.50
2020,03,21,15,00,36.60
2020,03,21,15,01,36.60
2020,03,21,15,02,36.70
2020,03,21,15,03,36.80
2020,03,21,15,04,36.90
2020,03,21,15,05,37.00
2020,03,21,15,06,37.10
2020,03,21,15,07,37.20
2020,03,21,15,08,37.20
2020,03,21,15,09,37.20
2020,03,21,15,10,37.30
2020,03,21,15,11,37.30
2020,03,21,15,12,37.30
2020,03,21,15,13,37.30
2020,03,21,15,14,37.20
2020,03,21,15,15,37.10
2020,03,21,15,16,37.10
2020,03,21,15,17,37.10
2020,03,21,15,18,37.00
2020,03,21,15,19,37.00
2020,03,21,15,20,37.00
2020,03,21,15,21,37.00
2020,03,21,15,22,37.00
2020,03,21,15,23,36.90
2020,03,21,15,24,36.90
2020,03,21,15,25,36.80
2020,03,21,15,26,36.70
2020,03,21,15,27,36.50
2020,03,21,15,28,36.30
2020,03,21,15,29,36.20
2020,03,21,15,30,36.20
2020,03,21,15,31,36.20
2020,03,21,15,32,36.30
2020,03,21,15,33,36.40
2020,03,21,15,34,36.40
2020,03,21,15,35,36.60
2020,03,21,15,36,36.60
2020,03,21,15,37,36.70
2020,03,21,15,38,36.80
2020,03,21,15,39,36.80
2020,03,21,15,40,36.80
2020,03,21,15,41,36.80
2020,03,21,15,42,36.70
2020,03,21,15,43,36.70
2020,03,21,15,44,36.70
2020,03,21,15,45,36.70
2020,03,21,15,46,36.60
2020,03,21,15,47,36.60
2020,03,21,15,48,36.60
2020,03,21,15,49,36.60
2020,03,21,15,50,36.60
2020,03,21,15,51,36.70
2020,03,21,15,52,36.80
2020,03,21,15,53,36.80
2020,03,21,15,54,36.90
2020,03,21,15,55,36.90
2020,03,21,15,56,36.90
2020,03,21,15,57,36.80
2020,03,21,15,58,36.70
2020,03,21,15,59,36.70
2020,03,21,16,00,36.70
2020,03,21,16,01,36.70
2020,03,21,16,02,36.70
2020,03,21,16,03,36.70
2020,03,21,16,04,36.70
2020,03,21,16,05,36.70
2020,03,21,16,06,36.70
2020,03,21,16,07,36.60
2020,03,21,16,08,36.60
2020,03,21,16,09,36.70
2020,03,21,16,10,36.70
2020,03,21,16,11,36.70
2020,03,21,16,12,36.60
2020,03,21,16,13,36.40
2020,03,21,16,14,36.30
2020,03,21,16,15,36.20
2020,03,21,16,16,36.00
2020,03,21,16,17,35.90
2020,03,21,16,18,35.70
2020,03,21,16,19,35.50
2020,03,21,16,20,35.40
2020,03,21,16,21,35.40
2020,03,21,16,22,35.40
2020,03,21,16,23,35.50
2020,03,21,16,24,35.60
2020,03,21,16,25,35.70
2020,03,21,16,26,35.80
2020,03,21,16,27,35.80
2020,03,21,16,28,35.70
2020,03,21,16,29,35.70
2020,03,21,16,30,35.60
2020,03,21,16,31,35.60
2020,03,21,16,32,35.50
2020,03,21,16,33,35.50
2020,03,21,16,34,35.50
2020,03,21,16,35,35.50
2020,03,21,16,36,35.60
2020,03,21,16,37,35.70
2020,03,21,16,38,35.80
2020,03,21,16,39,35.90
2020,03,21,16,40,36.00
2020,03,21,16,41,36.10
2020,03,21,16,42,36.10
2020,03,21,16,43,36.00
2020,03,21,16,44,36.00
2020,03,21,16,45,35.80
2020,03,21,16,46,35.80
2020,03,21,16,47,35.80
2020,03,21,16,48,35.70
2020,03,21,16,49,35.70
2020,03,21,16,50,35.50
2020,03,21,16,51,35.40
2020,03,21,16,52,35.20
2020,03,21,16,53,35.10
2020,03,21,16,54,35.00
2020,03,21,16,55,34.90
2020,03,21,16,56,34.80
2020,03,21,16,57,34.70
2020,03,21,16,58,34.70
2020,03,21,16,59,34.70
2020,03,21,17,00,34.60
2020,03,21,17,01,34.50
2020,03,21,17,02,34.50
2020,03,21,17,03,34.50
2020,03,21,17,04,34.40
2020,03,21,17,05,34.40
2020,03,21,17,06,34.40
2020,03,21,17,07,34.40
2020,03,21,17,08,34.40
2020,03,21,17,09,34.40
2020,03,21,17,10,34.50
2020,03,21,17,11,34.50
2020,03,21,17,12,34.60
2020,03,21,17,13,34.70
2020,03,21,17,14,34.70
2020,03,21,17,15,34.80
2020,03,21,17,16,34.80
2020,03,21,17,17,34.90
2020,03,21,17,18,34.90
2020,03,21,17,19,34.80
2020,03,21,17,20,34.90
2020,03,21,17,21,34.90
2020,03,21,17,22,35.00
2020,03,21,17,23,35.10
2020,03,21,17,24,35.20
2020,03,21,17,25,35.40
2020,03,21,17,26,35.50
2020,03,21,17,27,35.60
2020,03,21,17,28,35.70
2020,03,21,17,29,35.80
2020,03,21,17,30,36.00
2020,03,21,17,31,36.10
2020,03,21,17,32,36.20
2020,03,21,17,33,36.20
2020,03,21,17,34,36.20
2020,03,21,17,35,35.90
2020,03,21,17,36,35.70
2020,03,21,17,37,35.50
2020,03,21,17,38,35.30
2020,03,21,17,39,35.20
2020,03,21,17,40,35.00
2020,03,21,17,41,35.00
2020,03,21,17,42,34.90
2020,03,21,17,43,34.90
2020,03,21,17,44,34.90
2020,03,21,17,45,34.90
2020,03,21,17,46,34.90
2020,03,21,17,47,34.90
2020,03,21,17,48,34.90
2020,03,21,17,49,34.80
2020,03,21,17,50,34.90
2020,03,21,17,51,35.00
2020,03,21,17,52,35.10
2020,03,21,17,53,35.10
2020,03,21,17,54,35.20
2020,03,21,17,55,35.20
2020,03,21,17,56,35.20
2020,03,21,17,57,35.20
2020,03,21,17,58,35.20
2020,03,21,17,59,35.20
2020,03,21,18,00,35.20
2020,03,21,18,01,35.20
2020,03,21,18,02,35.20
2020,03,21,18,03,35.20
2020,03,21,18,04,35.20
2020,03,21,18,05,35.10
2020,03,21,18,06,35.10
2020,03,21,18,07,35.00
2020,03,21,18,08,35.00
2020,03,21,18,09,34.90
2020,03,21,18,10,34.80
2020,03,21,18,11,34.70
2020,03,21,18,12,34.70
2020,03,21,18,13,34.60
2020,03,21,18,14,34.50
2020,03,21,18,15,34.30
2020,03,21,18,16,34.20
2020,03,21,18,17,34.20
2020,03,21,18,18,34.10
2020,03,21,18,19,34.00
2020,03,21,18,20,33.90
2020,03,21,18,21,33.90
2020,03,21,18,22,33.80
2020,03,21,18,23,33.80
2020,03,21,18,24,33.80
2020,03,21,18,25,33.70
2020,03,21,18,26,33.70
2020,03,21,18,27,33.70
2020,03,21,18,28,33.60
2020,03,21,18,29,33.60
2020,03,21,18,30,33.50
2020,03,21,18,31,33.50
2020,03,21,18,32,33.50
2020,03,21,18,33,33.50
2020,03,21,18,34,33.50
2020,03,21,18,35,33.50
2020,03,21,18,36,33.50
2020,03,21,18,37,33.50
2020,03,21,18,38,33.50
2020,03,21,18,39,33.50
